Location: Peterborough
(44.3091°N, 78.3197°W)
Time: 05:09:13
(UTC-04:00)

Vanguard 2 - Pass Details

Date: 25 March 2023
Orbit: 552 x 2926 km, 32.9° (Epoch: 04 June)

Event Time Altitude Azimuth Distance (km) Brightness Sun altitude
Rises 08:50:11 0° 253° (WSW) 6,699 11.8 17.4°
Reaches altitude 10° 08:55:06 10° 249° (WSW) 5,531 11.5 18.2°
Maximum altitude 09:09:58 49° 182° (S) 2,588 10.6 20.8°
Drops below altitude 10° 09:19:44 10° 111° (ESE) 3,720 13.2 22.4°
Sets 09:22:22 0° 105° (ESE) 4,423 12.9 22.8°
